Tracking 22130 objects as of 21-Jan-2021
HD Live streaming from Space Station
objects crossing your sky now

TITAN 3C TRANSTAGE R/B

Track TITAN 3C TRANSTAGE R/B now!


NORAD ID: 11560
Int'l Code: 1979-086C
Perigee: 30,175.0 km
Apogee: 41,748.5 km
Inclination: 6.0 °
Period: 1,444.7 minutes
Semi major axis: 42332 km
RCS: Unknown
Launch date: October 1, 1979
Source: United States (US)
Launch site: AIR FORCE EASTERN TEST RANGE (AFETR)

Note: This is a ROCKET BODY
aabbcc
Your satellite tracking list
Your tracking list is empty




NASA's NSSDC Master Catalog

Two Line Element Set (TLE):
1 11560U 79086C   21019.92170354 -.00000240  00000-0  00000-0 0  9994
2 11560   5.9538 354.6124 1366960 108.6800 266.8010  0.99675402  6566
Source of the keplerian elements: McCants